CKJ7630 ZLXY-VMMC

Flight info

Callsign CKJ7630
Flight time N/A
Altitude 31100
Route NSH DCT DS DCT LIDMA W182 LAGEX G586 SJG B330 POU
Aircraft B738/M-SDE2E3FGHIRWXY/LB1

Departure

Time 2026-05-07 11:03
Airport Xi'an Xianyang International Airport (ZLXY)

Arrival

Time N/A
Airport Macau International Airport (VMMC)
Time Latitude Longitude Altitude Speed Heading
2026-05-07 10:30 34.43942 108.76853 1520 ft 0 kts 51°
2026-05-07 10:47 34.43947 108.76861 1518 ft 4 kts 51°
2026-05-07 10:47 34.43974 108.76906 1517 ft 10 kts 64°
2026-05-07 10:48 34.43941 108.76978 1520 ft 10 kts 135°
2026-05-07 10:48 34.43941 108.77031 1520 ft 7 kts 55°
2026-05-07 10:48 34.43983 108.77094 1520 ft 12 kts 46°
2026-05-07 10:48 34.44037 108.77163 1520 ft 10 kts 48°
2026-05-07 10:49 34.44092 108.77245 1520 ft 7 kts 49°
2026-05-07 10:49 34.44099 108.77254 1520 ft 0 kts 49°
2026-05-07 10:50 34.44099 108.77255 1520 ft 1 kts 49°
2026-05-07 10:51 34.44105 108.77263 1520 ft 2 kts 52°
2026-05-07 10:51 34.44111 108.77292 1520 ft 5 kts 94°
2026-05-07 10:51 34.44086 108.77331 1517 ft 8 kts 123°
2026-05-07 10:51 34.44098 108.77395 1520 ft 10 kts 50°
2026-05-07 10:52 34.44148 108.77470 1520 ft 13 kts 50°
2026-05-07 10:52 34.44213 108.77561 1520 ft 15 kts 49°
2026-05-07 10:52 34.44271 108.77644 1520 ft 11 kts 50°
2026-05-07 10:52 34.44327 108.77726 1520 ft 14 kts 50°
2026-05-07 10:53 34.44397 108.77821 1520 ft 16 kts 42°
2026-05-07 10:53 34.44468 108.77901 1520 ft 9 kts 50°
2026-05-07 10:53 34.44514 108.77966 1520 ft 12 kts 50°
2026-05-07 10:53 34.44501 108.78057 1520 ft 13 kts 140°
2026-05-07 10:54 34.44466 108.78094 1519 ft 4 kts 138°
2026-05-07 10:54 34.44443 108.78119 1520 ft 2 kts 139°
2026-05-07 10:54 34.44441 108.78121 1520 ft 0 kts 139°
2026-05-07 11:01 34.44433 108.78130 1520 ft 4 kts 139°
2026-05-07 11:02 34.44387 108.78179 1519 ft 11 kts 138°
2026-05-07 11:02 34.44354 108.78214 1519 ft 6 kts 144°
2026-05-07 11:02 34.44308 108.78184 1519 ft 1 kts 232°
2026-05-07 11:02 34.44285 108.78148 1519 ft 11 kts 232°
2026-05-07 11:03 34.44170 108.77983 1519 ft 54 kts 229°
2026-05-07 11:03 34.43741 108.77390 1521 ft 130 kts 229°
2026-05-07 11:03 34.43023 108.76410 1753 ft 174 kts 226°
2026-05-07 11:03 34.42135 108.75288 2385 ft 194 kts 225°
2026-05-07 11:04 34.41263 108.73950 3187 ft 207 kts 230°
2026-05-07 11:04 34.40291 108.72532 3616 ft 232 kts 226°
2026-05-07 11:04 34.39173 108.71041 4160 ft 244 kts 225°
2026-05-07 11:04 34.38021 108.69491 4878 ft 250 kts 225°
2026-05-07 11:05 34.36854 108.67897 5682 ft 255 kts 226°
2026-05-07 11:05 34.35679 108.66277 6660 ft 257 kts 225°
2026-05-07 11:05 34.34490 108.64633 7541 ft 262 kts 225°
2026-05-07 11:05 34.33268 108.62973 8411 ft 267 kts 224°
2026-05-07 11:06 34.31988 108.61306 9212 ft 273 kts 223°
2026-05-07 11:06 34.30683 108.59616 10074 ft 277 kts 223°
2026-05-07 11:06 34.29356 108.57895 10887 ft 282 kts 223°
2026-05-07 11:06 34.28008 108.56140 11674 ft 288 kts 224°
2026-05-07 11:07 34.26973 108.54036 12419 ft 299 kts 254°
2026-05-07 11:07 34.26874 108.51525 13128 ft 305 kts 285°
2026-05-07 11:07 34.27797 108.49242 13680 ft 304 kts 319°
2026-05-07 11:07 34.29311 108.47492 14481 ft 301 kts 326°
2026-05-07 11:08 34.30868 108.45814 15368 ft 298 kts 320°
2026-05-07 11:08 34.32658 108.44567 16025 ft 303 kts 344°
2026-05-07 11:08 34.34778 108.44398 16451 ft 315 kts
2026-05-07 11:08 34.36857 108.45416 16599 ft 334 kts 34°
2026-05-07 11:09 34.38730 108.47140 17037 ft 342 kts 38°
2026-05-07 11:09 34.40604 108.48938 17602 ft 345 kts 38°
2026-05-07 11:09 34.42497 108.50737 18178 ft 347 kts 39°
2026-05-07 11:09 34.44121 108.52904 18658 ft 351 kts 60°
2026-05-07 11:10 34.44923 108.55691 19165 ft 354 kts 83°
2026-05-07 11:10 34.44823 108.58677 19424 ft 364 kts 105°
2026-05-07 11:10 34.43739 108.61481 19522 ft 376 kts 127°
2026-05-07 11:10 34.41901 108.63793 19626 ft 387 kts 137°
2026-05-07 11:11 34.39866 108.66007 19700 ft 399 kts 139°
2026-05-07 11:11 34.37756 108.68256 19768 ft 409 kts 139°
2026-05-07 11:11 34.35602 108.70567 19827 ft 418 kts 139°
2026-05-07 11:11 34.33417 108.72942 19877 ft 426 kts 138°
2026-05-07 11:12 34.31203 108.75373 19920 ft 433 kts 138°
2026-05-07 11:12 34.28959 108.77848 19955 ft 439 kts 138°
2026-05-07 11:12 34.26691 108.80351 19985 ft 445 kts 138°
2026-05-07 11:12 34.24410 108.82831 20007 ft 449 kts 141°
2026-05-07 11:13 34.21718 108.84734 20008 ft 452 kts 160°
2026-05-07 11:13 34.18648 108.85543 20035 ft 454 kts 176°
2026-05-07 11:13 34.15482 108.85583 20073 ft 457 kts 180°
2026-05-07 11:13 34.12294 108.85551 20084 ft 459 kts 180°
2026-05-07 11:14 34.09093 108.85549 20094 ft 461 kts 180°
2026-05-07 11:14 34.05876 108.85587 20104 ft 463 kts 179°
2026-05-07 11:14 34.02645 108.85643 20115 ft 465 kts 179°
2026-05-07 11:14 33.99404 108.85680 20123 ft 466 kts 180°
2026-05-07 11:15 33.96159 108.85699 20130 ft 467 kts 180°
2026-05-07 11:15 33.92903 108.85712 20137 ft 468 kts 180°
2026-05-07 11:15 33.89641 108.85725 20144 ft 469 kts 180°
2026-05-07 11:15 33.86372 108.85740 20147 ft 470 kts 180°
2026-05-07 11:16 33.83097 108.85757 20151 ft 471 kts 180°
2026-05-07 11:16 33.79821 108.85776 20156 ft 471 kts 180°
2026-05-07 11:16 33.76543 108.85795 20160 ft 471 kts 180°
2026-05-07 11:16 33.73283 108.85815 20476 ft 463 kts 180°
2026-05-07 11:17 33.70095 108.85834 20966 ft 454 kts 180°
2026-05-07 11:17 33.66955 108.85853 21340 ft 449 kts 180°
2026-05-07 11:17 33.63847 108.85871 21657 ft 445 kts 180°
2026-05-07 11:17 33.60754 108.85889 21902 ft 444 kts 180°
2026-05-07 11:18 33.57669 108.85899 22149 ft 443 kts 181°
2026-05-07 11:18 33.54648 108.85289 22365 ft 441 kts 200°
2026-05-07 11:18 33.52822 108.84236 22545 ft 440 kts 212°
2026-05-07 11:18 33.49777 108.81004 22847 ft 439 kts 231°
2026-05-07 11:19 33.48224 108.77863 23052 ft 439 kts 246°
2026-05-07 11:19 33.47424 108.75642 23170 ft 440 kts 247°
2026-05-07 11:19 33.46257 108.72238 23180 ft 444 kts 248°
2026-05-07 11:19 33.45093 108.68794 23202 ft 448 kts 248°
2026-05-07 11:20 33.43506 108.64157 23227 ft 452 kts 247°
2026-05-07 11:20 33.42704 108.61852 23238 ft 454 kts 247°
2026-05-07 11:20 33.41477 108.58363 23252 ft 456 kts 247°
2026-05-07 11:20 33.40238 108.54864 23327 ft 456 kts 247°
2026-05-07 11:21 33.38998 108.51379 23449 ft 455 kts 247°
2026-05-07 11:21 33.37759 108.47902 23574 ft 454 kts 247°
2026-05-07 11:21 33.36522 108.44430 23696 ft 453 kts 247°
2026-05-07 11:21 33.35287 108.40966 23818 ft 452 kts 246°
2026-05-07 11:22 33.34054 108.37509 23943 ft 452 kts 246°
2026-05-07 11:22 33.32725 108.34114 24045 ft 451 kts 238°
2026-05-07 11:22 33.30651 108.31317 24175 ft 450 kts 220°
2026-05-07 11:22 33.28050 108.29254 24303 ft 450 kts 206°
2026-05-07 11:23 33.25187 108.27783 24636 ft 444 kts 202°
2026-05-07 11:23 33.22359 108.26446 25315 ft 431 kts 201°
2026-05-07 11:23 33.19606 108.25162 26009 ft 419 kts 201°
2026-05-07 11:23 33.16937 108.23912 26736 ft 406 kts 201°
2026-05-07 11:24 33.14353 108.22690 27476 ft 393 kts 202°
2026-05-07 11:24 33.11855 108.21499 28217 ft 381 kts 202°
2026-05-07 11:24 33.09409 108.20324 28654 ft 378 kts 202°
2026-05-07 11:24 33.06959 108.19143 28832 ft 382 kts 202°
2026-05-07 11:25 33.01942 108.16719 28921 ft 396 kts 202°
2026-05-07 11:25 32.96764 108.14216 28998 ft 407 kts 202°
2026-05-07 11:26 32.91478 108.11664 29084 ft 417 kts 202°
2026-05-07 11:26 32.86040 108.09042 29225 ft 424 kts 202°
2026-05-07 11:27 32.80530 108.06389 29324 ft 431 kts 202°
2026-05-07 11:27 32.74933 108.03698 29370 ft 437 kts 202°
2026-05-07 11:28 32.69246 108.00974 29408 ft 449 kts 201°
2026-05-07 11:28 32.66326 107.99576 29740 ft 447 kts 202°
2026-05-07 11:28 32.63470 107.98205 30080 ft 441 kts 202°
2026-05-07 11:29 32.57787 107.95479 30097 ft 440 kts 202°
2026-05-07 11:29 32.52113 107.92764 30098 ft 440 kts 202°
2026-05-07 11:30 32.46443 107.90057 30101 ft 439 kts 202°
2026-05-07 11:30 32.40777 107.87355 30100 ft 439 kts 202°
2026-05-07 11:31 32.35109 107.84656 30103 ft 439 kts 202°
2026-05-07 11:31 32.29448 107.81964 30101 ft 439 kts 202°
2026-05-07 11:32 32.20952 107.77930 30102 ft 438 kts 202°
2026-05-07 11:33 32.15291 107.75248 30103 ft 438 kts 202°
2026-05-07 11:33 32.09628 107.72567 30099 ft 438 kts 202°
2026-05-07 11:34 32.03971 107.69893 30101 ft 438 kts 202°
2026-05-07 11:34 31.98313 107.67222 30103 ft 438 kts 202°
2026-05-07 11:35 31.92656 107.64556 30099 ft 438 kts 202°
2026-05-07 11:35 31.87032 107.61908 30099 ft 438 kts 202°
2026-05-07 11:36 31.81373 107.59247 30101 ft 438 kts 202°
2026-05-07 11:36 31.75709 107.56587 30101 ft 438 kts 202°
2026-05-07 11:37 31.70044 107.53931 30099 ft 438 kts 202°
2026-05-07 11:37 31.64378 107.51277 30100 ft 438 kts 202°
2026-05-07 11:38 31.58711 107.48627 30102 ft 438 kts 202°
2026-05-07 11:38 31.53043 107.45979 30101 ft 438 kts 202°
2026-05-07 11:39 31.47373 107.43334 30102 ft 438 kts 202°
2026-05-07 11:39 31.41705 107.40694 30102 ft 439 kts 202°
2026-05-07 11:40 31.36035 107.38056 30102 ft 439 kts 202°
2026-05-07 11:40 31.30365 107.35421 30101 ft 439 kts 202°
2026-05-07 11:41 31.24692 107.32788 30100 ft 439 kts 202°
2026-05-07 11:41 31.19020 107.30160 30101 ft 438 kts 201°
2026-05-07 11:42 31.13346 107.27534 30101 ft 438 kts 201°
2026-05-07 11:42 31.07676 107.24912 30100 ft 438 kts 201°
2026-05-07 11:43 31.02040 107.22310 30103 ft 438 kts 201°
2026-05-07 11:43 30.96368 107.19695 30100 ft 438 kts 201°
2026-05-07 11:44 30.90695 107.17083 30103 ft 438 kts 201°
2026-05-07 11:44 30.85022 107.14474 30101 ft 438 kts 201°
2026-05-07 11:45 30.79348 107.11867 30103 ft 438 kts 201°
2026-05-07 11:45 30.73675 107.09265 30101 ft 438 kts 201°
2026-05-07 11:46 30.68006 107.06668 30102 ft 438 kts 201°
2026-05-07 11:46 30.62327 107.04069 30100 ft 438 kts 201°
2026-05-07 11:47 30.56650 107.01475 30103 ft 438 kts 201°
2026-05-07 11:47 30.50977 106.98885 30100 ft 438 kts 201°
2026-05-07 11:48 30.45297 106.96296 30101 ft 438 kts 201°
2026-05-07 11:48 30.39621 106.93711 30102 ft 438 kts 201°
2026-05-07 11:49 30.33943 106.91129 30101 ft 438 kts 201°
2026-05-07 11:49 30.28265 106.88549 30102 ft 438 kts 201°
2026-05-07 11:50 30.22617 106.86014 30099 ft 438 kts 198°
2026-05-07 11:50 30.16624 106.84866 30101 ft 439 kts 179°
2026-05-07 11:51 30.10694 106.85169 30098 ft 439 kts 177°
2026-05-07 11:51 30.04596 106.85567 30098 ft 439 kts 177°
2026-05-07 11:52 29.98496 106.85930 30101 ft 439 kts 177°
2026-05-07 11:52 29.92395 106.86264 30100 ft 439 kts 178°
2026-05-07 11:53 29.86292 106.86586 30103 ft 439 kts 178°
2026-05-07 11:53 29.80188 106.86906 30101 ft 439 kts 178°
2026-05-07 11:54 29.74082 106.87226 30101 ft 439 kts 178°
2026-05-07 11:54 29.67977 106.87547 30100 ft 439 kts 178°
2026-05-07 11:55 29.61871 106.87867 30101 ft 439 kts 178°
2026-05-07 11:55 29.55769 106.88187 30099 ft 439 kts 178°
2026-05-07 11:56 29.49663 106.88507 30103 ft 439 kts 178°
2026-05-07 11:56 29.43557 106.88826 30100 ft 439 kts 178°
2026-05-07 11:57 29.37451 106.89145 30100 ft 439 kts 178°
2026-05-07 11:57 29.31346 106.89464 30101 ft 439 kts 178°
2026-05-07 11:58 29.25243 106.89782 30101 ft 439 kts 178°
2026-05-07 11:58 29.19139 106.90099 30105 ft 439 kts 178°
2026-05-07 11:59 29.13034 106.90416 30099 ft 439 kts 178°
2026-05-07 11:59 29.06933 106.90733 30102 ft 439 kts 178°
2026-05-07 12:00 29.00830 106.91050 30102 ft 439 kts 178°
2026-05-07 12:00 28.94725 106.91367 30096 ft 439 kts 178°
2026-05-07 12:01 28.88626 106.91682 30094 ft 439 kts 178°
2026-05-07 12:01 28.82529 106.91997 30101 ft 439 kts 178°
2026-05-07 12:02 28.76423 106.92312 30105 ft 440 kts 178°
2026-05-07 12:02 28.70201 106.92633 30112 ft 456 kts 178°
2026-05-07 12:03 28.63785 106.92963 30100 ft 462 kts 178°
2026-05-07 12:03 28.57400 106.93292 30091 ft 457 kts 178°
2026-05-07 12:04 28.51114 106.93615 30103 ft 453 kts 178°
2026-05-07 12:04 28.44833 106.93937 30095 ft 450 kts 178°
2026-05-07 12:05 28.38588 106.94257 30098 ft 448 kts 178°
2026-05-07 12:05 28.32371 106.94576 30100 ft 446 kts 178°
2026-05-07 12:06 28.26178 106.94892 30099 ft 445 kts 178°
2026-05-07 12:06 28.20009 106.95207 30101 ft 443 kts 178°
2026-05-07 12:07 28.13851 106.95521 30100 ft 443 kts 178°
2026-05-07 12:07 28.08742 106.95782 30102 ft 442 kts 178°
2026-05-07 12:08 28.02599 106.96094 30101 ft 441 kts 178°
2026-05-07 12:08 27.96467 106.96406 30102 ft 441 kts 178°
2026-05-07 12:09 27.90339 106.96717 30101 ft 441 kts 178°
2026-05-07 12:09 27.84215 106.97028 30100 ft 440 kts 178°
2026-05-07 12:10 27.78098 106.97338 30102 ft 440 kts 178°
2026-05-07 12:10 27.71977 106.97648 30103 ft 440 kts 178°
2026-05-07 12:11 27.65861 106.97957 30100 ft 440 kts 178°
2026-05-07 12:11 27.59746 106.98266 30101 ft 440 kts 178°
2026-05-07 12:12 27.53634 106.98574 30102 ft 440 kts 178°
2026-05-07 12:12 27.47507 106.98883 30108 ft 443 kts 178°
2026-05-07 12:13 27.41320 106.99194 30109 ft 447 kts 178°
2026-05-07 12:13 27.35079 106.99508 30105 ft 451 kts 178°
2026-05-07 12:14 27.28795 106.99824 30101 ft 453 kts 178°
2026-05-07 12:14 27.22482 107.00140 30103 ft 455 kts 178°
2026-05-07 12:15 27.16143 107.00458 30101 ft 457 kts 178°
2026-05-07 12:15 27.09783 107.00776 30101 ft 458 kts 178°
2026-05-07 12:16 27.03676 107.01082 30102 ft 459 kts 178°
2026-05-07 12:16 26.97398 107.02138 30105 ft 460 kts 155°
2026-05-07 12:16 26.94697 107.04042 30102 ft 461 kts 139°
2026-05-07 12:17 26.92546 107.06697 30109 ft 462 kts 125°
2026-05-07 12:17 26.91087 107.09842 30102 ft 463 kts 109°
2026-05-07 12:17 26.90147 107.13332 30179 ft 461 kts 106°
2026-05-07 12:18 26.88482 107.20292 30181 ft 463 kts 105°
2026-05-07 12:18 26.86788 107.27268 30187 ft 465 kts 106°
2026-05-07 12:19 26.85041 107.34195 30194 ft 466 kts 106°
2026-05-07 12:19 26.83257 107.41174 30200 ft 467 kts 106°
2026-05-07 12:20 26.81467 107.48164 30205 ft 467 kts 106°
2026-05-07 12:20 26.79676 107.55157 30211 ft 468 kts 106°
2026-05-07 12:21 26.77878 107.62159 30217 ft 468 kts 106°
2026-05-07 12:21 26.76073 107.69159 30223 ft 468 kts 106°
2026-05-07 12:22 26.74266 107.76143 30357 ft 465 kts 106°
2026-05-07 12:22 26.72470 107.83076 30461 ft 467 kts 106°
2026-05-07 12:23 26.70643 107.90114 30683 ft 474 kts 106°
2026-05-07 12:23 26.69720 107.93664 30809 ft 477 kts 106°
2026-05-07 12:23 26.68790 107.97239 30936 ft 480 kts 106°
2026-05-07 12:23 26.67855 108.00827 31054 ft 482 kts 107°
2026-05-07 12:24 26.66912 108.04441 31097 ft 486 kts 107°
2026-05-07 12:24 26.65000 108.11761 31109 ft 494 kts 107°
2026-05-07 12:25 26.63055 108.19185 31109 ft 501 kts 107°
2026-05-07 12:25 26.61085 108.26693 31108 ft 506 kts 107°
2026-05-07 12:26 26.59095 108.34260 31105 ft 510 kts 107°
2026-05-07 12:26 26.57154 108.41910 31101 ft 514 kts 105°
2026-05-07 12:27 26.55398 108.49603 31104 ft 516 kts 104°
2026-05-07 12:27 26.53625 108.57392 31101 ft 518 kts 104°
2026-05-07 12:28 26.51813 108.65191 31103 ft 519 kts 105°
2026-05-07 12:28 26.49981 108.72994 31099 ft 520 kts 105°
2026-05-07 12:29 26.48145 108.80803 31098 ft 520 kts 105°
2026-05-07 12:29 26.46307 108.88610 31102 ft 520 kts 105°
2026-05-07 12:30 26.44453 108.96414 31100 ft 520 kts 107°
2026-05-07 12:30 26.43127 109.00160 31097 ft 520 kts 118°
2026-05-07 12:30 26.41200 109.03560 31111 ft 519 kts 127°
2026-05-07 12:31 26.36029 109.09123 31113 ft 518 kts 142°
2026-05-07 12:31 26.30344 109.14071 31097 ft 518 kts 142°
2026-05-07 12:32 26.24684 109.19052 31100 ft 518 kts 142°
2026-05-07 12:32 26.19062 109.24079 31101 ft 518 kts 141°
2026-05-07 12:33 26.10640 109.31635 31102 ft 518 kts 141°
2026-05-07 12:33 26.05017 109.36665 31101 ft 518 kts 141°
2026-05-07 12:34 25.99436 109.41648 31101 ft 519 kts 141°
2026-05-07 12:34 25.93811 109.46664 31099 ft 519 kts 141°
2026-05-07 12:35 25.88182 109.51678 31102 ft 518 kts 141°
2026-05-07 12:35 25.82553 109.56686 31099 ft 518 kts 141°
2026-05-07 12:36 25.76948 109.61721 31099 ft 518 kts 139°
2026-05-07 12:36 25.71681 109.67190 31104 ft 519 kts 136°
2026-05-07 12:37 25.66512 109.72771 31101 ft 519 kts 136°
2026-05-07 12:37 25.61317 109.78323 31100 ft 519 kts 136°
2026-05-07 12:38 25.56096 109.83838 31101 ft 519 kts 136°
2026-05-07 12:38 25.50864 109.89343 31101 ft 519 kts 136°
2026-05-07 12:39 25.45633 109.94844 31104 ft 519 kts 136°
2026-05-07 12:39 25.40397 110.00347 31096 ft 519 kts 136°
2026-05-07 12:40 25.35162 110.05842 31102 ft 519 kts 137°
2026-05-07 12:40 25.29927 110.11331 31101 ft 519 kts 137°
2026-05-07 12:41 25.24691 110.16814 31101 ft 519 kts 137°
2026-05-07 12:41 25.19452 110.22297 31102 ft 519 kts 136°
2026-05-07 12:42 25.14275 110.27768 31100 ft 519 kts 136°
2026-05-07 12:42 25.09073 110.33280 31102 ft 519 kts 136°
2026-05-07 12:43 25.03862 110.38786 31102 ft 519 kts 136°
2026-05-07 12:43 24.98647 110.44288 31101 ft 519 kts 136°
2026-05-07 12:44 24.93443 110.49796 31101 ft 519 kts 136°
2026-05-07 12:44 24.88237 110.55305 31102 ft 519 kts 136°
2026-05-07 12:45 24.83032 110.60805 31102 ft 519 kts 136°
2026-05-07 12:45 24.77821 110.66302 31100 ft 519 kts 136°
2026-05-07 12:46 24.72609 110.71794 31102 ft 519 kts 136°
2026-05-07 12:46 24.67397 110.77280 31099 ft 519 kts 136°
2026-05-07 12:47 24.62218 110.82809 31103 ft 519 kts 136°
2026-05-07 12:47 24.57078 110.88373 31101 ft 519 kts 135°
2026-05-07 12:48 24.51932 110.93932 31102 ft 519 kts 136°
2026-05-07 12:48 24.46775 110.99481 31102 ft 519 kts 136°
2026-05-07 12:49 24.41617 111.05019 31102 ft 519 kts 136°
2026-05-07 12:49 24.36458 111.10553 31101 ft 519 kts 136°
2026-05-07 12:50 24.31296 111.16085 31101 ft 519 kts 136°
2026-05-07 12:50 24.26133 111.21612 31102 ft 519 kts 136°
2026-05-07 12:51 24.20830 111.26957 31094 ft 518 kts 143°
2026-05-07 12:51 24.14644 111.30883 31105 ft 518 kts 154°
2026-05-07 12:52 24.08180 111.34357 31100 ft 518 kts 154°
2026-05-07 12:52 24.01723 111.37864 31102 ft 518 kts 153°
2026-05-07 12:53 23.95319 111.41414 31086 ft 508 kts 153°
2026-05-07 12:53 23.92217 111.43145 31087 ft 493 kts 153°
2026-05-07 12:53 23.89185 111.44838 31090 ft 486 kts 153°
2026-05-07 12:54 23.83234 111.48153 31094 ft 475 kts 153°
2026-05-07 12:54 23.77399 111.51395 31094 ft 467 kts 153°
2026-05-07 12:55 23.71649 111.54587 31097 ft 461 kts 153°
2026-05-07 12:55 23.65962 111.57739 31100 ft 456 kts 153°
2026-05-07 12:56 23.61277 111.60334 31100 ft 453 kts 153°
2026-05-07 12:56 23.55672 111.63437 31099 ft 450 kts 153°
2026-05-07 12:57 23.49164 111.67036 31101 ft 447 kts 153°
2026-05-07 12:57 23.43660 111.70076 31100 ft 446 kts 153°
2026-05-07 12:58 23.39030 111.72634 31101 ft 445 kts 153°
2026-05-07 12:58 23.33522 111.75678 31101 ft 443 kts 153°
2026-05-07 12:59 23.28025 111.78715 31101 ft 443 kts 153°